This is the latest recevied weather packets stored in our database for station/object OE3PDB-3. If no packets are shown the sender has not sent any weather packets the latest 10 day(s).
| Time | Temp. | Humidity | Pressure | Rain* | Wind** | Luminosity | Snow |
|---|---|---|---|---|---|---|---|
| 1777579250 | 7.22° C | 41% | 1027 hPa | 0 mm | - | - | - |
| 1777578650 | 7.22° C | 41% | 1027.1 hPa | 0 mm | - | - | - |
| 1777578050 | 7.22° C | 40% | 1027.1 hPa | 0 mm | - | - | - |
| 1777577450 | 7.78° C | 40% | 1027.1 hPa | 0 mm | - | - | - |
| 1777576850 | 7.78° C | 39% | 1027 hPa | 0 mm | - | - | - |
| 1777576250 | 7.78° C | 38% | 1027 hPa | 0 mm | - | - | - |
| 1777575650 | 8.33° C | 37% | 1026.9 hPa | 0 mm | - | - | - |
| 1777575050 | 8.33° C | 37% | 1026.8 hPa | 0 mm | - | - | - |
| 1777574450 | 8.89° C | 36% | 1026.7 hPa | 0 mm | - | - | - |
| 1777573850 | 8.89° C | 36% | 1026.5 hPa | 0 mm | - | - | - |
| 1777573250 | 9.44° C | 35% | 1026.4 hPa | 0 mm | - | - | - |
| 1777572650 | 10° C | 34% | 1026.3 hPa | 0 mm | - | - | - |
| 1777572051 | 10.56° C | 33% | 1026.4 hPa | 0 mm | - | - | - |
| 1777571450 | 11.11° C | 31% | 1026.3 hPa | 0 mm | - | - | - |
| 1777570850 | 11.67° C | 31% | 1026.3 hPa | 0 mm | - | - | - |
| 1777570250 | 12.78° C | 30% | 1026.3 hPa | 0 mm | - | - | - |
| 1777569651 | 12.78° C | 29% | 1026.3 hPa | 0 mm | - | - | - |
| 1777569051 | 13.33° C | 28% | 1026.3 hPa | 0 mm | - | - | - |
| 1777568451 | 13.89° C | 27% | 1026.4 hPa | 0 mm | - | - | - |
| 1777567851 | 14.44° C | 27% | 1026.3 hPa | 0 mm | - | - | - |
| 1777567251 | 15° C | 26% | 1026.2 hPa | 0 mm | - | - | - |
| 1777566651 | 15.56° C | 25% | 1026.2 hPa | 0 mm | - | - | - |
| 1777566051 | 16.11° C | 25% | 1026.2 hPa | 0 mm | - | - | - |
| 1777565451 | 16.67° C | 25% | 1026.2 hPa | 0 mm | - | - | - |
| 1777564851 | 17.22° C | 25% | 1026.3 hPa | 0 mm | - | - | - |
* Rain latest hour (hover to see other rain measurements)
** Current wind speed in m/s (hover to see current wind gust speed)